Weather in Dundaga

Latvia     57˚30′43″N   22˚20′42″E
temp.,
°C
wind,
m/s
gust,
m/s
humid.,
%
clouds,
%
prec.,
mm/h
press.,
hPa
HPBL,
m
28 november, sat
sat2823:00+2˚n499190 0.2 1018680
02:00+2˚ne398285 0.4 1020451
05:00+3˚nne388390 0.1 1021619
08:00+3˚nne388189 0.1 1022544
11:00+3˚ne477787 0.1 1023924
14:00+4˚ne377391 0.1 1023855
17:00+3˚ne3884100 0.1 1024720
20:00+3˚ne3779100 0.1 1025751
29 november, sun
sun2923:00+3˚ene3780100 0.0 1025744
02:00+2˚ene278597 0.0 1026560
05:00+1˚ene268796 0.1 1025508
08:00+2˚ene268396 0.2 1026586
11:00+2˚e258179 0.1 1026646
14:00+2˚ene247586 0.2 1025742
17:00+1˚ne258089 0.1 1024506
20:00+1˚ne258395 0.1 1024608
30 november, mon
mon3023:00ne1393100 0.1 1023242
02:00+1˚nnw1297100 0.4 1022138
05:00+1˚wsw0197100 0.6 102172
08:00+1˚ssw1196100 0.8 1021136
11:00sw239397 0.0 1020246
14:00+1˚ssw249198 0.0 1020326
17:00s3796100 0.3 1019361
20:00s3793100 1.5 1018325
1 december, tue
tue123:00s479285 0.0 1018359
02:00+2˚s379392 0.1 1017443
05:00+3˚ssw4897100 1.0 1017392
08:00+3˚sw4994100 2.0 1018548
11:00+3˚ssw41086100 0.0 1019544
14:00+4˚sw5109299 0.1 1020674
17:00+4˚ssw51084100 0.1 1021771
20:00+2˚ssw51087100 0.1 1023562
2 december, wed
wed223:00+1˚ssw4985100 0.0 1023462
02:00ssw4987100 0.0 1023434
05:00s4992100 0.0 1023427
08:00s499399 0.4 1023417
11:00s4891100 0.3 1024397
14:00+1˚s378397 0.4 1023400
17:00−1˚s388493 0.0 1023330
20:00−1˚s388694 0.0 1023316